DLH109 EDDH-EDDF

Flight info

Callsign DLH109
Flight time N/A
Altitude 30000
Route AMLUH2G AMLUH M852 DENIX DCT RIMET/N0432F310 T157 KOKEB/N0383F230 T157 KERAX KERAX5A
Aircraft A320/M-SDE3FGHIRWY/LB1

Departure

Time 2026-05-06 16:30
Airport Hamburg Helmut Schmidt Airport (EDDH)

Arrival

Time N/A
Airport Frankfurt Main Airport (EDDF)
Time Latitude Longitude Altitude Speed Heading
2026-05-06 15:59 53.63295 10.00355 46 ft 0 kts 87°
2026-05-06 16:16 53.63295 10.00351 46 ft 3 kts 87°
2026-05-06 16:16 53.63293 10.00306 46 ft 4 kts 87°
2026-05-06 16:16 53.63290 10.00264 46 ft 4 kts 58°
2026-05-06 16:16 53.63272 10.00241 42 ft 4 kts
2026-05-06 16:17 53.63266 10.00241 46 ft 0 kts 356°
2026-05-06 16:22 53.63276 10.00224 42 ft 4 kts 290°
2026-05-06 16:23 53.63264 10.00205 46 ft 4 kts 216°
2026-05-06 16:23 53.63251 10.00189 44 ft 0 kts 216°
2026-05-06 16:23 53.63247 10.00183 45 ft 0 kts 216°
2026-05-06 16:23 53.63244 10.00179 45 ft 4 kts 221°
2026-05-06 16:24 53.63210 10.00094 45 ft 8 kts 231°
2026-05-06 16:24 53.63147 9.99971 45 ft 15 kts 228°
2026-05-06 16:24 53.63121 9.99908 45 ft 1 kts 237°
2026-05-06 16:24 53.63121 9.99906 45 ft 2 kts 237°
2026-05-06 16:25 53.63096 9.99885 45 ft 11 kts 196°
2026-05-06 16:25 53.63037 9.99923 45 ft 13 kts 150°
2026-05-06 16:25 53.63007 9.99949 45 ft 0 kts 153°
2026-05-06 16:25 53.62997 9.99958 45 ft 0 kts 153°
2026-05-06 16:26 53.62979 9.99974 46 ft 7 kts 152°
2026-05-06 16:26 53.62963 9.99987 46 ft 0 kts 157°
2026-05-06 16:26 53.62925 9.99982 46 ft 1 kts 205°
2026-05-06 16:26 53.62903 9.99932 46 ft 2 kts 240°
2026-05-06 16:27 53.62901 9.99929 46 ft 0 kts 240°
2026-05-06 16:27 53.62896 9.99913 46 ft 5 kts 241°
2026-05-06 16:27 53.62893 9.99901 46 ft 0 kts 242°
2026-05-06 16:28 53.62876 9.99848 47 ft 12 kts 244°
2026-05-06 16:28 53.62904 9.99714 47 ft 5 kts 333°
2026-05-06 16:28 53.62904 9.99713 47 ft 0 kts 333°
2026-05-06 16:29 53.62905 9.99713 47 ft 2 kts 333°
2026-05-06 16:29 53.63052 9.99592 45 ft 60 kts 334°
2026-05-06 16:29 53.63637 9.99082 44 ft 126 kts 334°
2026-05-06 16:29 53.64575 9.98279 129 ft 167 kts 334°
2026-05-06 16:30 53.65627 9.97380 753 ft 173 kts 337°
2026-05-06 16:30 53.66353 9.96790 1250 ft 176 kts 339°
2026-05-06 16:30 53.67893 9.95488 1910 ft 200 kts 339°
2026-05-06 16:30 53.69231 9.94739 2480 ft 204 kts
2026-05-06 16:31 53.70647 9.94702 3263 ft 204 kts
2026-05-06 16:31 53.72046 9.94880 4049 ft 205 kts 23°
2026-05-06 16:31 53.73134 9.96364 4755 ft 209 kts 60°
2026-05-06 16:31 53.73634 9.98679 4958 ft 211 kts 73°
2026-05-06 16:32 53.74012 10.01071 5000 ft 211 kts 78°
2026-05-06 16:32 53.74019 10.03542 5002 ft 214 kts 99°
2026-05-06 16:32 53.73411 10.06078 5014 ft 250 kts 117°
2026-05-06 16:32 53.72525 10.08674 5007 ft 257 kts 117°
2026-05-06 16:33 53.71634 10.11304 5010 ft 259 kts 117°
2026-05-06 16:33 53.70757 10.13910 5004 ft 259 kts 117°
2026-05-06 16:33 53.69866 10.16560 5007 ft 260 kts 118°
2026-05-06 16:34 53.67275 10.20803 5003 ft 267 kts 149°
2026-05-06 16:34 53.65525 10.21918 5009 ft 271 kts 162°
2026-05-06 16:34 53.63707 10.22739 5006 ft 271 kts 162°
2026-05-06 16:34 53.61886 10.23570 5006 ft 271 kts 162°
2026-05-06 16:35 53.60053 10.24413 5399 ft 275 kts 162°
2026-05-06 16:35 53.58201 10.25263 6482 ft 277 kts 162°
2026-05-06 16:35 53.56330 10.26124 7416 ft 280 kts 162°
2026-05-06 16:35 53.54466 10.26980 8357 ft 282 kts 162°
2026-05-06 16:36 53.52568 10.27847 9330 ft 284 kts 163°
2026-05-06 16:36 53.50649 10.28723 10103 ft 293 kts 163°
2026-05-06 16:36 53.48608 10.29655 10388 ft 316 kts 162°
2026-05-06 16:36 53.46446 10.30643 10933 ft 327 kts 163°
2026-05-06 16:37 53.44242 10.31650 11752 ft 331 kts 164°
2026-05-06 16:37 53.42004 10.32668 12643 ft 335 kts 164°
2026-05-06 16:37 53.39737 10.33692 13538 ft 338 kts 166°
2026-05-06 16:37 53.37454 10.34716 14339 ft 342 kts 167°
2026-05-06 16:38 53.35169 10.35737 15089 ft 346 kts 167°
2026-05-06 16:38 53.32833 10.36781 15843 ft 349 kts 167°
2026-05-06 16:38 53.30475 10.37837 16543 ft 352 kts 167°
2026-05-06 16:38 53.28098 10.38904 17200 ft 356 kts 167°
2026-05-06 16:39 53.25692 10.39983 17833 ft 360 kts 167°
2026-05-06 16:39 53.23260 10.41073 18413 ft 364 kts 167°
2026-05-06 16:39 53.20803 10.42170 18994 ft 368 kts 167°
2026-05-06 16:39 53.18318 10.43274 19569 ft 371 kts 167°
2026-05-06 16:40 53.15812 10.44385 20146 ft 374 kts 167°
2026-05-06 16:40 53.13299 10.45264 20698 ft 376 kts 175°
2026-05-06 16:40 53.10677 10.45401 21269 ft 378 kts 185°
2026-05-06 16:40 53.08038 10.45032 21844 ft 381 kts 186°
2026-05-06 16:41 53.05383 10.44658 22442 ft 384 kts 185°
2026-05-06 16:41 53.02710 10.44288 22777 ft 387 kts 185°
2026-05-06 16:41 53.00036 10.43922 22842 ft 382 kts 185°
2026-05-06 16:41 52.97391 10.43560 22841 ft 381 kts 185°
2026-05-06 16:42 52.94750 10.43201 22841 ft 380 kts 185°
2026-05-06 16:42 52.92152 10.42849 22839 ft 380 kts 185°
2026-05-06 16:42 52.89522 10.42492 22841 ft 379 kts 185°
2026-05-06 16:42 52.86894 10.42133 22834 ft 379 kts 185°
2026-05-06 16:43 52.84268 10.41777 22837 ft 379 kts 185°
2026-05-06 16:43 52.81637 10.41421 22835 ft 380 kts 185°
2026-05-06 16:43 52.79003 10.41062 22829 ft 380 kts 186°
2026-05-06 16:43 52.76364 10.40701 22828 ft 380 kts 186°
2026-05-06 16:44 52.73728 10.40340 22828 ft 380 kts 186°
2026-05-06 16:44 52.71092 10.39981 22832 ft 380 kts 186°
2026-05-06 16:44 52.68487 10.39629 22828 ft 380 kts 186°
2026-05-06 16:44 52.65851 10.39277 22825 ft 380 kts 186°
2026-05-06 16:45 52.63215 10.38927 22822 ft 380 kts 186°
2026-05-06 16:45 52.60585 10.38577 22820 ft 380 kts 186°
2026-05-06 16:45 52.57949 10.38222 22815 ft 380 kts 186°
2026-05-06 16:45 52.55311 10.37866 22816 ft 380 kts 186°
2026-05-06 16:46 52.52672 10.37510 22806 ft 380 kts 186°
2026-05-06 16:46 52.50927 10.37274 22807 ft 381 kts 186°
2026-05-06 16:46 52.47429 10.36807 22808 ft 381 kts 186°
2026-05-06 16:46 52.44784 10.36453 22810 ft 381 kts 186°
2026-05-06 16:47 52.42141 10.36100 22812 ft 381 kts 186°
2026-05-06 16:47 52.39503 10.35749 22812 ft 381 kts 186°
2026-05-06 16:47 52.36858 10.35397 22811 ft 381 kts 186°
2026-05-06 16:47 52.34218 10.35046 22812 ft 381 kts 186°
2026-05-06 16:48 52.32465 10.34812 22811 ft 381 kts 186°
2026-05-06 16:48 52.29825 10.34458 22800 ft 381 kts 187°
2026-05-06 16:48 52.26333 10.33988 22813 ft 380 kts 187°
2026-05-06 16:48 52.23700 10.33643 22816 ft 379 kts 186°
2026-05-06 16:49 52.21076 10.33304 22817 ft 379 kts 186°
2026-05-06 16:49 52.19295 10.33073 22817 ft 379 kts 187°
2026-05-06 16:49 52.16707 10.32730 22816 ft 378 kts 187°
2026-05-06 16:49 52.14087 10.32381 22815 ft 378 kts 187°
2026-05-06 16:50 52.11467 10.32036 22816 ft 378 kts 187°
2026-05-06 16:50 52.08840 10.31692 22812 ft 378 kts 187°
2026-05-06 16:50 52.05367 10.31242 22800 ft 378 kts 187°
2026-05-06 16:50 52.03597 10.31011 22800 ft 378 kts 187°
2026-05-06 16:51 52.00134 10.30560 22801 ft 377 kts 187°
2026-05-06 16:51 51.98363 10.30330 22798 ft 378 kts 187°
2026-05-06 16:51 51.95782 10.29995 22798 ft 378 kts 187°
2026-05-06 16:51 51.93161 10.29656 22796 ft 377 kts 187°
2026-05-06 16:52 51.90551 10.29315 22795 ft 374 kts 187°
2026-05-06 16:52 51.87977 10.28979 22795 ft 370 kts 187°
2026-05-06 16:52 51.85416 10.28643 22796 ft 368 kts 187°
2026-05-06 16:52 51.82868 10.28309 22785 ft 368 kts 188°
2026-05-06 16:53 51.80318 10.27975 22795 ft 367 kts 188°
2026-05-06 16:53 51.77772 10.27641 22797 ft 367 kts 188°
2026-05-06 16:53 51.75220 10.27303 22795 ft 367 kts 188°
2026-05-06 16:53 51.72709 10.26974 22794 ft 367 kts 188°
2026-05-06 16:54 51.70163 10.26645 22797 ft 367 kts 188°
2026-05-06 16:54 51.67611 10.26319 22796 ft 367 kts 188°
2026-05-06 16:54 51.65065 10.25995 22796 ft 367 kts 188°
2026-05-06 16:54 51.62519 10.25668 22795 ft 367 kts 188°
2026-05-06 16:55 51.59973 10.25341 22796 ft 367 kts 188°
2026-05-06 16:55 51.57427 10.25013 22773 ft 367 kts 188°
2026-05-06 16:55 51.54879 10.24683 22775 ft 367 kts 188°
2026-05-06 16:55 51.52331 10.24354 22765 ft 368 kts 188°
2026-05-06 16:56 51.49814 10.24032 22763 ft 368 kts 188°
2026-05-06 16:56 51.47264 10.23710 22764 ft 368 kts 188°
2026-05-06 16:56 51.44706 10.23385 22766 ft 368 kts 188°
2026-05-06 16:56 51.42155 10.23059 22767 ft 368 kts 188°
2026-05-06 16:57 51.39602 10.22734 22771 ft 368 kts 188°
2026-05-06 16:57 51.37051 10.22411 22772 ft 368 kts 188°
2026-05-06 16:57 51.34493 10.22086 22760 ft 369 kts 187°
2026-05-06 16:57 51.31931 10.21813 22760 ft 370 kts 185°
2026-05-06 16:58 51.29392 10.21692 22759 ft 371 kts 184°
2026-05-06 16:58 51.26804 10.21660 22758 ft 371 kts 183°